CAPE
2109 1197 1871 1406 1356 1476 1766 1812 1965 2586 2522 2726 2873 2708 2776 3110 3214 3064 3068 3082 3036 2916 2944 2827 2899 2960 2982 3007 3057 3072 3117 3066 2948 2914 2889 2736 2751 2882 2823 2816 2724 2558 2571 2558 2684 2794 2670 2755 2553 2243 2360 2422 2363 2237 2289 2649 2455 2598 2518 2198 2343 2312 2278 2649 2493 2345 2084 2282 2403 2250 1864 1900 1981 1864 1801 1593 1538 1615 1964 1777 1852 1626 1685 1459 1569
2146 1731 1794 1891 1960 1757 1984 2012 2247 2287 2516 2844 2834 2868 2909 3063 3097 3157 3102 3152 3086 3004 2987 2945 2941 3089 3232 3282 3270 3172 3083 2798 2814 2789 2700 2783 2799 2636 2542 2504 2428 2407 2384 2657 2750 2768 2719 2476 2630 2417 2251 2191 2374 2592 2657 2424 2616 2435 2370 2397 2348 2338 2525 2739 2679 2579 2410 2310 2338 2000 1682 1654 1808 1956 1910 1624 1701 2003 2125 2191 2029 1659 1698 1952 1870
1777 2036 1836 1891 1864 1860 1906 2252 2288 2296 2575 2767 2678 2794 2979 3064 3050 3059 3121 3039 3119 3155 3209 3239 3288 3167 3143 3081 3018 2950 2804 2807 2687 2514 2472 2885 2635 2726 2636 2492 2632 2583 2450 2729 2701 2561 2480 2458 2564 2706 2722 2575 2418 2479 2332 2484 2185 2359 2530 2309 2289 2296 2672 2796 2807 2776 2481 2468 2369 2109 1926 1904 1769 1863 1834 1968 2103 2055 2172 2098 1887 1724 1673 1352 1708
2102 1984 1830 2057 1976 2101 2323 2486 2556 2703 2594 2514 2674 3120 3290 3209 3102 3215 3188 3174 3190 3258 3335 3267 3136 3006 2970 2971 3016 2879 2736 2545 2488 2458 2228 2491 2647 2625 2427 2349 2377 2401 2214 2419 2509 2625 2505 2489 2476 2338 2306 2497 2266 2222 2446 2523 2592 2562 2671 2770 2777 2842 2890 2796 2884 2838 2659 2293 2064 2540 2205 2004 1649 1901 1972 1966 2095 2238 2318 2114 1956 1702 1532 1582 1929
1809 1799 2062 2108 2411 2396 2351 2443 2718 2695 2596 2710 3040 3300 3345 3326 3117 3250 3348 3271 3300 3292 3127 3112 2976 2811 2910 2930 2827 2734 2606 2597 2605 2512 2404 2402 2687 2609 2521 2300 2383 2475 2771 2721 2365 2084 2461 2297 2260 2220 2164 2346 2308 2450 2464 2278 2590 2632 2263 2829 2727 2926 2836 2894 2737 2781 2718 2257 2242 2573 2515 1972 1742 1763 1995 2128 2186 2302 2156 2009 1807 1754 1996 2000 2146
1684 1736 1747 1836 1890 2278 2425 2422 2754 2705 2835 3035 3089 3239 3226 3254 3326 3383 3432 3232 3170 2996 2865 2867 2743 2687 2748 2710 2703 2758 2714 2779 2728 2582 2504 2537 2659 2645 2590 2348 2264 2148 2838 2798 2556 2420 2293 2039 2116 2102 2118 2188 2388 2381 2491 2495 2336 2312 2631 2687 2734 2842 2872 2786 2441 2372 2262 2291 2248 2599 1896 2178 1720 1677 1922 2055 2093 2135 2049 2098 1966 1986 2286 2517 2587
1418 1640 1644 1633 2078 2537 2588 2700 2824 2853 2951 2986 3134 3194 3271 3352 3350 3279 3153 2995 2874 2814 2690 2750 2702 2733 2752 2776 2886 2795 2676 2583 2486 2468 2420 2661 2656 2644 2775 2585 2416 2444 2378 2510 2398 2501 2217 2192 2132 2004 2042 2138 2072 2555 2385 2360 2279 2296 2445 2731 2624 2549 2588 2495 2163 2382 2431 2426 2226 1684 2134 1904 1864 1767 1923 1815 1865 1783 1812 1901 2188 2373 2494 2363 2186
896 966 734 970 1323 2291 2756 2908 2898 2987 3086 3143 3244 3285 3267 3167 3093 3041 2944 2707 2716 2680 2743 2777 2731 2692 2812 2774 2614 2556 2624 2519 2604 2445 2674 2453 2735 2916 2888 2694 2444 2097 2233 2399 2438 2179 2184 2079 2208 2068 2300 2265 2321 2456 2292 2269 2435 2491 2557 2626 2694 2582 2369 2177 2204 2201 1773 2786 1772 1345 1851 1686 1974 1522 1959 1897 2051 2026 2201 2196 2224 2413 2290 2030 2373
758 801 928 1051 1548 2283 2750 2753 2926 3093 3156 3102 3124 3057 3027 2958 2920 2870 2736 2807 2920 2909 2827 2734 2716 2584 2452 2659 2693 2695 2798 2816 2938 2769 2538 2766 2685 2629 2799 2610 2502 2438 2418 2250 2439 2327 2310 2209 2104 2205 2148 2297 2317 2266 2365 2297 2256 2453 2617 2589 2412 2220 2294 2276 2078 1598 2264 1949 1926 1715 1412 1598 1856 1558 1943 1967 1944 2221 2274 2262 2437 2454 2061 2005 2083
416 720 810 955 1730 2916 2798 2809 2777 2859 2934 2892 2781 2748 2732 2697 2685 2720 2888 2838 2471 2762 2664 2664 2546 2473 2734 2793 2830 2785 2920 2629 2753 2659 2540 2592 2606 2534 2617 2372 2403 2534 2136 2196 2217 2138 2169 2237 2360 2151 2360 2570 2483 2390 2428 2293 2405 2457 2526 2455 1970 1874 1971 1950 2346 1970 2062 2308 1595 1531 1569 1846 1490 2246 2021 2134 1899 1612 1690 1867 2159 1944 2167 2175 2370
884 790 611 1000 1667 2826 2744 2727 2736 2758 2818 2844 2774 2705 2573 2728 2662 2770 2684 2829 2717 2778 2728 2751 2756 2600 2617 2841 2570 2805 2516 2749 2820 2585 2466 2385 2374 2500 2512 2639 2590 2418 2105 2244 2278 2307 2343 2261 2259 2284 2386 2349 2296 2326 2416 2266 2338 2518 2531 2555 1940 1763 1857 1708 1926 1627 1637 1807 2248 2160 2020 1960 2334 1801 2247 2062 2277 2044 2128 1886 2284 2250 2322 2257 2115
898 803 1095 1780 2926 2844 2758 2690 2726 2729 2757 2682 2564 2564 2687 2730 2510 2878 2656 2679 2766 2574 2787 2807 2587 2604 2680 2763 2686 2915 2771 2724 2820 2623 2533 2396 2462 2478 2460 2525 2527 2234 2342 2280 2579 2521 2336 2243 2149 2161 2036 2257 2315 2408 2269 2222 2322 2522 2430 2421 2225 1973 1939 2086 1771 1684 1721 1890 1806 2245 1799 1978 2233 2057 2344 2260 2211 2155 2162 2187 2258 2260 2186 2201 2165
685 1097 1263 1530 2136 2701 2636 2597 2635 2748 2784 2656 2636 2585 2532 2713 2443 2658 2771 2642 2660 2533 2658 2378 2454 2448 2518 2467 2779 2901 2901 2737 2615 2588 2645 2432 2475 2554 2550 2361 2559 2156 1950 2164 2477 2422 2261 1955 2113 2165 2118 2048 2168 2102 2305 2276 2360 2559 2528 2447 2059 2085 2010 2238 2069 2106 2217 2138 2068 2177 2214 2322 1672 2101 2222 2156 2306 2320 2238 2110 1949 2103 2115 2130 2102
1203 1088 935 1279 2029 2653 2480 2565 2564 2684 2634 2566 2583 2479 2643 2680 2696 2563 2706 2484 2556 2608 2510 2451 2624 2606 2780 2746 2835 2924 2855 2722 2623 2565 2562 2630 2324 2396 2599 2504 2517 2446 2208 2239 2393 2103 1844 1936 2080 1989 2098 2298 2110 2178 2323 2366 2453 2421 2473 2454 2205 1993 2086 2044 2043 1862 1927 2083 2235 2325 2340 1936 1952 2043 2051 2064 1996 2188 1946 1935 1869 2107 2070 2041 2105
1125 711 955 1422 2029 2158 2447 2419 2518 2433 2368 2243 2321 2524 2472 2655 2748 2447 2504 2504 2631 2649 2678 2461 2508 2716 2864 2820 2854 2819 2676 2614 2701 2709 2602 2460 2327 2337 2087 2274 2428 2311 2182 2301 2087 1884 1758 1502 1922 2202 2108 2081 1950 1937 2338 2442 2392 2408 2297 2489 2453 1907 1797 2096 2141 1896 2070 2198 2034 1886 1832 2034 1823 2087 2146 2101 1977 1943 1894 1688 2030 2054 1971 2009 1994
666 808 1113 1281 1657 2166 2360 2464 2390 2417 2324 2259 2620 2342 2470 2761 2388 2639 2604 2580 2563 2474 2366 2678 2475 2851 2906 2852 2805 2751 2700 2712 2692 2635 2455 2485 2229 2169 2154 2309 2393 2363 2218 2078 1874 1590 1528 1586 1657 2069 2199 2077 2044 1999 2386 2444 2440 2392 2204 2321 2493 1674 2079 2179 2428 1874 1992 2146 2290 2152 2107 1919 1566 1836 2027 2078 1812 1892 1954 1902 1824 2097 1992 1892 1911
627 894 832 1185 1552 1755 1950 2467 2359 2487 2397 2275 2343 2343 2667 2824 2728 2606 2644 2666 2628 2668 2455 2690 2648 2818 2871 2702 2747 2683 2691 2701 2700 2626 2779 2490 2207 2280 2540 2123 1957 1960 1838 1516 1399 1518 1498 1663 1862 1862 2188 2166 2044 2065 2039 2196 2535 2449 2168 2058 2244 2212 2048 2079 2125 2321 1501 2055 2183 2375 2465 1797 1710 1809 2129 1932 1929 2027 1939 1956 1895 2048 1950 1852 1869
860 717 885 1260 1262 1476 1719 2025 2622 2632 2262 2149 2340 2565 2683 2759 2555 2675 2679 2712 2572 2543 2453 2470 2527 2354 2681 2836 2814 2645 2713 2761 2721 2712 2653 2330 2867 2827 2532 2492 2240 2194 1833 1482 1306 1443 1642 1692 1781 2179 2301 2259 2367 2238 2268 2336 2332 2413 2145 1960 1818 2028 1826 1846 1509 1801 2111 1884 1946 2346 2061 1933 1612 1918 1851 1828 2169 2209 2051 1971 1896 1874 1940 1932 1901
669 670 864 982 1144 1232 1434 2120 2012 1914 2321 2223 2352 2288 2296 2529 2670 2638 2594 2480 2526 2537 2634 2639 2618 2793 2854 2834 2712 2444 2274 2753 2621 2534 2530 2368 2380 2728 2482 2427 2422 2279 1748 1619 1621 1691 1837 1729 2032 2232 2355 2298 2391 2431 2468 2511 2565 2413 2212 2027 1968 2091 1952 1330 1519 1682 1934 2062 2026 1369 2178 1925 1932 1893 1857 1976 2146 2036 2129 2106 2165 2008 1880 1937 1827
783 654 556 796 916 1185 1831 1866 1570 1723 1847 1282 1820 2153 2324 2357 2284 2470 2452 2524 2509 2610 2673 2707 2681 2696 2676 2625 2390 2658 2587 2535 2194 2401 2530 2504 2382 2422 2500 2526 2473 2007 1753 1704 1534 1519 1249 1852 2242 2354 2353 2386 2571 2644 2627 2482 2510 2461 2188 2156 2136 1964 2402 1226 1271 1386 1200 1354 1546 1904 1967 1962 1970 2120 2092 2096 2051 2020 1977 2212 2219 2124 1961 1732 1826
713 584 446 608 797 1513 1787 2033 2224 1952 1914 1856 2136 2375 2379 2319 2329 2419 2399 2683 2703 2770 2750 2797 2756 2688 2533 2556 2476 2634 2569 2765 2447 2636 2484 2547 2392 2437 2570 2600 2460 2319 2207 1943 2035 1776 2112 1858 2373 2387 2559 2474 2697 2755 2664 2633 2446 2350 2486 2307 2416 2973 925 1237 1433 1353 952 1150 1575 2095 2048 1833 1972 2143 1942 1776 1862 1814 1809 2047 2224 2020 1935 1993 1900
767 554 537 606 1010 1599 1574 1792 2259 2169 2058 1532 1984 2413 2445 2327 2388 2589 2103 2804 2769 2712 2549 2939 3054 2747 2288 2259 1817 2665 3024 3405 3019 1880 2167 2548 2261 1957 2196 2348 2338 2260 2210 2138 2392 2584 2461 2402 2368 2449 2460 2544 2758 2664 2682 2667 2515 2492 2456 3060 2798 958 1154 1102 1343 1196 1188 1293 1625 1993 2178 1974 1987 2018 2071 1833 1767 1429 1674 1869 2188 2176 2062 1881 1808
777 507 508 696 1268 1379 1693 1504 1203 2265 2331 1355 2228 2206 2241 2681 2655 2504 2194 2190 2084 2488 3059 2893 2662 2193 1900 2072 1758 2429 3009 3597 3578 2755 2588 2224 2072 1908 2167 2371 2347 2328 2464 2381 2452 2643 2651 2532 2569 2606 2603 2643 2748 2952 2472 2206 2159 2450 3016 2450 1202 1297 1252 1157 966 1076 1387 1415 1798 2142 1917 1870 1830 1903 1892 1837 2028 2042 1626 1665 2011 2146 2080 1998 1942
718 598 480 834 1166 1369 1145 1755 2246 2442 1832 2211 2201 1981 1808 2486 2524 2773 2131 2365 2279 2472 2904 2727 2848 2534 2868 2183 1911 2570 3003 3467 3159 2924 2188 2321 2300 1897 2175 2408 2638 2436 2496 2457 2654 2710 2553 2781 2306 2607 2644 2367 2218 1918 2208 1838 2082 2296 2314 1710 1694 1809 1535 1083 937 1317 1340 1415 1674 1861 1803 1752 1768 1776 1887 1927 1838 1896 1997 1934 1946 1976 2030 1983 1858
720 494 576 791 1125 1143 1328 1774 2303 2516 2437 2321 2141 2094 2526 1947 2126 1946 2400 2621 2030 2235 2516 2867 3002 3383 2719 2310 1977 2412 2720 2704 2809 2837 3100 2145 2462 1985 2585 2841 2724 2533 2076 2701 2228 2788 3070 2662 2851 2213 1543 2175 2083 1667 1816 1565 1773 2464 1289 1746 1583 1384 1212 1125 1320 1390 1452 1752 1914 1831 1796 1744 1745 1757 1936 1956 1908 1881 1835 2082 2038 1995 1971 2010 1931
608 545 606 716 966 1117 1070 1647 2086 2297 2373 2423 2382 2110 2135 2208 2374 2204 2107 1990 2182 1845 1521 1940 2908 3029 2446 1437 1745 1941 2001 2325 2828 2704 2841 2843 2537 2269 2220 2413 2167 2639 2196 2759 1658 2401 2686 2346 2116 2014 2123 836 1553 1416 1506 1683 1532 1266 1787 1776 1600 1530 1364 1104 1084 1586 1559 1662 2093 1965 1855 1839 1678 1610 1687 1779 1780 1723 1713 1993 2043 1926 1918 1960 1882
638 520 638 659 774 886 1038 1382 1612 2224 2380 1788 1868 2092 2146 1972 2054 2152 1831 1525 2161 2173 2228 2366 2142 2358 1690 1166 1239 1986 1486 2310 2372 2386 2196 1481 1488 1637 2026 2484 1817 1791 2095 2676 2729 2405 2158 1898 1939 1478 1167 1061 484 1408 1015 1235 1490 1364 1600 1611 1596 1687 1536 1497 1250 1209 1756 1660 2160 2033 2124 2120 1853 1588 1565 1548 1738 1698 1569 1692 1733 1886 1916 1926 1851
769 749 557 466 633 511 872 1105 1652 2089 2083 2336 2272 1771 2082 1983 1436 1944 1990 1946 2072 2076 1984 2006 2122 2569 1748 1049 884 1165 1696 1771 1768 1787 2007 1526 1770 1940 2043 2540 1371 1600 1635 1770 2210 2666 1535 2018 1503 1423 1382 920 819 1188 704 1204 1184 1178 1380 1710 1774 1667 1841 1742 1746 1348 1504 1532 2013 2255 2169 2181 2170 1962 1626 1554 1605 1670 1777 1677 1668 1700 1689 1813 1703
614 721 437 326 497 645 957 1103 1783 1750 1757 2288 1969 1984 1983 1941 1916 1798 2079 2251 1947 1888 1994 2012 1639 1731 1420 1323 1224 865 1098 1124 1184 1530 1554 1789 1324 1547 1400 769 1445 1590 2050 2068 1898 2035 2362 2082 2322 2523 1483 1550 701 963 980 718 695 844 699 1637 1452 1707 1760 1656 1779 1160 1186 1536 1670 2046 2192 2184 2146 2204 2012 1779 1576 1616 1746 1767 1744 1722 1680 1659 1854
472 627 272 364 375 616 731 1148 1466 2043 2279 1936 1798 2034 2059 2020 1906 2071 2250 1809 1948 1887 2106 1002 1003 939 1459 1482 921 1026 1274 1242 1849 1258 1397 1247 1290 765 1184 1462 1493 1966 2966 2306 1811 2160 1843 1913 2079 1659 1429 1387 1295 1009 782 541 393 682 454 364 1315 1230 1551 1435 1784 1364 1195 1382 1300 1830 2175 2078 2144 2034 2114 1985 1775 1552 1540 1642 1699 1686 1696 1698 1735
765 408 366 330 525 602 604 1147 1465 1700 1856 1536 1850 2142 2178 2109 2022 2365 2121 2238 2065 2187 1006 830 732 669 1147 2396 2688 2537 1934 1934 1996 2020 1481 1393 1165 1427 1692 1239 2176 2763 2234 2435 1501 1652 1881 1506 1749 1904 1580 1706 1651 972 1342 896 779 459 319 458 468 1156 1427 1562 1390 846 716 1681 1570 1699 2302 2225 2133 2155 2070 2104 1935 1823 1709 1640 1583 1603 1612 1744 1768
594 453 288 334 480 538 587 1056 1336 1627 1564 1268 1694 2028 2270 2179 2267 2133 1656 2222 2210 1190 644 817 658 1300 1891 2407 2370 2717 2857 2784 3089 2540 2072 1928 1757 1948 1840 2306 2690 2082 1930 2284 1980 2520 2216 1923 1871 2324 1900 1938 1348 1450 1436 988 676 358 234 422 525 550 1101 1465 988 451 767 1132 1822 1823 2000 2286 2263 2262 2278 2126 1987 1909 1750 1898 1903 1754 1553 1598 1720
840 528 366 284 489 439 744 925 1258 1569 1492 1223 1453 1699 1633 1642 1740 1368 1508 2234 1460 862 592 856 1172 1950 2012 2337 2462 2858 3156 2900 3536 2535 2087 2559 2693 2801 1896 2058 2676 2364 2336 2301 2964 2278 1760 2356 2204 2210 2222 1456 1341 1446 1201 753 590 363 269 343 379 542 482 1336 1082 489 491 438 1387 1956 2287 2145 2216 2358 2302 2315 2103 2125 2029 1846 1910 1974 1950 1881 1476
829 599 509 250 286 407 735 694 1203 1597 1257 1019 1256 1095 1294 1234 1081 1090 1587 1850 1016 732 928 1185 1690 1944 1972 2326 2497 2522 3084 3332 3186 3399 2490 1990 2200 2223 2158 2014 2182 2331 2497 3041 2736 1935 1648 1856 1432 1612 1260 2124 1061 788 1156 649 455 380 240 184 367 705 753 465 1019 751 634 573 523 1745 2308 2446 2388 2224 2268 2333 2205 2266 2180 2119 2029 1996 2054 2163 2133
817 698 596 269 287 377 605 679 1005 1256 1353 865 840 958 1065 872 906 866 1520 1227 758 696 766 1299 1545 1626 1702 2262 2376 2541 3187 3899 3892 3461 2496 2472 2262 1999 1774 1296 2176 2769 2985 2964 3184 2157 3192 2470 1758 1632 1626 1309 1374 1192 1016 651 354 53 266 280 196 550 454 681 1044 1137 1222 556 501 593 997 1815 2316 2227 2483 2354 2147 2306 2254 2330 2402 2150 2141 2152 2259
805 681 820 455 213 357 573 585 950 987 1094 838 876 965 1067 908 570 828 1130 946 665 614 670 919 1087 1309 1626 1970 2543 2792 3492 3810 4036 3698 3145 2478 2910 3433 2683 3065 2262 2428 2420 2896 2585 2481 3016 3173 2232 1983 1747 1252 1278 1184 1280 600 286 312 200 190 486 511 374 776 1315 1023 742 585 710 672 709 976 1490 2158 2300 2248 2528 2465 2111 2376 2442 2460 2352 2306 2239
737 852 1036 611 208 426 509 539 908 881 661 1190 1290 1373 1107 966 788 668 668 670 457 352 754 836 929 1100 1593 1675 2532 2842 3298 3120 4258 3046 3847 2464 2400 2710 2343 2492 2644 2412 2008 3292 2564 2320 3069 1580 3207 1777 1972 2403 1311 774 885 794 553 420 240 253 397 448 632 1479 1308 869 705 1029 559 637 847 1029 1745 1674 1428 2105 2570 2655 2318 2373 2444 2476 2468 2397 2308
827 1007 966 737 209 527 449 536 769 1138 942 1562 1652 1670 1444 1271 1026 582 650 338 115 198 519 601 703 946 1173 2078 2220 2342 2892 3930 3768 3628 3373 2803 2428 2417 2990 3293 2567 2393 2782 2024 1969 2318 2033 1733 2488 3079 1803 2545 996 753 683 616 480 427 377 338 543 340 632 829 801 1031 1108 915 732 1024 888 1038 878 680 1330 1300 1365 2703 2461 2416 2482 2546 2491 2482 2421
677 733 1148 1045 386 748 430 709 776 1072 1291 1815 2027 1784 1670 1794 1063 753 918 192 240 186 350 446 598 686 568 2358 2472 2236 2941 3810 4026 3800 3708 2793 2117 2293 2206 2612 1959 2947 2655 2020 1987 2407 2114 2126 2163 1737 2597 1360 935 907 695 196 167 311 186 305 355 712 565 564 850 1306 1052 823 746 785 867 1106 1272 1401 1661 1124 1358 1512 2365 2500 2351 2320 2418 2564 2534
1058 1150 1401 1225 662 1100 489 809 928 839 1451 1986 2089 1585 1542 1353 798 576 999 605 363 315 438 348 598 675 953 1972 2394 2538 2839 3302 3862 4224 3644 3274 2564 2041 2846 2347 2426 2805 2906 1708 2315 2785 2757 2984 2955 3030 2009 1882 871 634 496 414 464 289 338 264 595 739 1187 798 936 1086 940 658 530 662 524 398 867 808 847 1023 1434 1458 1932 2156 2178 1535 2042 2757 2708
890 1204 1386 1324 941 1253 724 946 1028 1034 1518 1758 1630 1118 1086 1048 733 452 679 672 519 424 461 436 532 695 1681 2154 2468 2406 2688 2766 3388 3554 3223 3041 3219 3119 3278 3164 2427 2588 2967 1879 1895 2623 2743 2523 3268 2132 2569 1818 929 572 340 747 497 548 561 650 384 806 852 334 1128 919 979 578 766 558 445 499 393 720 783 510 998 866 1611 1703 1678 1566 1136 2801 2397
1266 1260 1441 1596 1175 1128 684 1157 1228 1109 1603 1618 1504 784 786 628 536 349 200 132 462 514 436 392 518 821 1809 2088 2322 2381 2550 2722 2680 2697 2761 2992 2401 3120 3493 3825 2878 3027 3580 2951 3357 2319 2307 2418 2802 2625 1266 2118 1424 763 398 681 705 631 424 479 533 522 782 800 615 917 868 779 727 773 445 559 568 469 373 532 999 780 875 1051 1266 1223 1467 1732 2191
1187 1195 1486 1585 1215 1268 825 1362 1346 1088 1498 1358 1253 868 776 328 234 147 2 7 63 217 70 83 131 665 1452 2038 2184 2322 2596 2574 2551 2512 2692 2652 3227 3225 2957 3936 2552 3319 3410 3232 2900 3120 4013 3485 1849 2136 1994 885 1255 1050 610 554 404 379 538 525 426 587 743 703 622 692 671 540 634 583 488 647 538 624 442 940 696 659 461 666 1158 1306 1518 1451 1411
1300 1032 1503 1565 1368 1426 1156 1327 1243 1104 1633 1492 1354 707 650 566 202 149 12 5 11 36 25 115 100 252 979 1716 2083 2438 2663 2504 2460 2393 2307 2780 3097 3488 2983 2888 2780 3398 4018 4145 3761 4003 3395 3230 2668 1869 1649 1780 1718 1218 658 335 674 355 451 453 326 346 459 837 518 676 660 775 431 810 463 548 624 664 858 557 741 1019 761 819 1266 1670 1737 1714 1527
1288 1537 1541 1526 1264 1211 1432 1314 1126 1115 1570 1664 1504 746 809 758 347 207 54 127 66 69 43 105 167 247 468 1453 1851 2381 2634 2486 2307 2298 2137 2797 3271 3218 3180 3176 3439 3377 3004 3012 3345 2881 2537 2510 2304 2873 1945 1385 1214 1557 1020 544 156 614 934 437 277 257 239 275 393 86 417 539 424 347 417 410 582 909 824 751 702 898 609 815 1408 1477 1764 1949 1688
1138 906 1540 1365 1237 1160 1532 1628 1271 1042 1122 1706 1646 1059 940 1096 866 605 290 296 488 342 212 199 232 248 193 834 1582 1916 2333 2388 2476 2493 2357 3027 3163 3318 3255 2987 2754 2788 2881 2625 2674 2683 2838 2701 2318 2239 2452 1627 2470 1884 1151 676 456 483 624 698 833 534 298 481 418 787 589 429 494 274 373 376 711 556 922 938 645 471 581 842 1247 1321 1536 1566 1523
1358 1481 1396 1402 1298 1036 1719 1849 1525 1245 1023 1642 1697 1292 1216 1370 1135 873 663 366 830 787 652 146 139 254 96 216 933 1692 2070 2148 2050 2372 2437 2540 3394 3243 3101 2738 2703 2772 2522 2569 3003 2799 2342 2207 2642 2300 2955 2912 2579 3123 2250 989 824 823 505 278 413 395 417 457 737 718 824 819 413 400 494 468 606 739 773 581 774 745 696 744 904 889 1331 1360 1470
1374 1127 1327 1439 1591 1484 1711 2025 1845 1382 1082 1481 1635 1315 1401 1474 1386 751 520 583 404 676 674 174 0 17 56 71 319 1218 1892 2184 1721 2044 2503 2560 2817 3323 3170 2821 2585 2597 2445 2132 2354 2060 2252 2741 2584 4098 3476 3097 3367 2638 2712 1085 1333 1142 405 341 271 298 219 80 314 574 889 838 931 524 466 498 437 584 603 646 600 526 368 669 599 673 829 1315 1506
1167 1332 1396 1220 1596 1774 2038 2112 1968 1780 1426 1700 1846 1430 1443 1478 1309 623 288 293 105 18 120 54 0 0 0 73 292 741 1771 2225 1851 1873 2372 2534 2798 3071 3218 2968 2729 2733 2637 2203 1724 1866 2240 2909 3021 3138 3303 3174 2768 2617 2634 2526 1646 916 768 767 449 649 474 549 673 523 731 829 756 627 313 282 325 453 674 464 499 514 405 605 632 718 630 936 1447
1265 1378 1449 1447 1571 1979 2280 2460 2088 1948 1670 2037 2104 1517 1356 1493 1463 715 343 146 21 0 0 82 41 0 34 319 500 1115 1442 2290 2029 1849 2287 2443 2673 2880 3022 2880 2818 2610 2424 2180 1899 1840 1958 2344 2997 3008 3215 3345 3202 2555 2449 2525 2141 1515 935 1363 1720 1504 1023 610 515 599 422 730 723 481 220 287 582 636 593 543 457 408 417 357 804 873 798 756 829
1292 1372 1391 1408 1643 1912 2462 2726 2521 2233 1981 2341 2300 2046 1502 1450 1376 995 508 276 106 16 9 214 438 180 244 595 656 1324 1524 2280 1932 1760 1986 2258 2374 2794 2764 2683 2570 2800 2592 2484 2309 1933 1865 1892 2127 2673 3312 3432 3472 2947 2341 2260 2431 2332 1526 1646 1833 1410 1053 1025 950 803 646 639 764 697 631 459 564 251 638 523 616 485 519 367 282 440 799 662 838
Wind_Speed
5 7 7 9 11 11 8 7 5 4 4 5 5 6 7 6 5 5 4 3 3 3 3 3 3 3 3 4 4 4 4 4 4 5 5 5 5 5 6 7 8 9 9 11 12 13 12 12 10 10 11 8 6 5 5 6 8 9 9 9 10 10 11 12 13 14 12 10 10 11 9 11 13 12 11 13 13 11 8 6 7 7 6 7 10
6 4 5 5 6 7 6 6 6 5 5 5 5 5 5 4 4 4 4 4 3 4 3 3 3 3 4 4 4 4 4 4 5 5 5 5 5 5 6 6 7 8 9 12 11 11 11 9 9 9 10 8 5 5 6 7 7 8 8 9 11 9 9 10 11 12 11 11 13 12 11 13 13 13 13 13 13 12 10 9 9 6 5 8 9
4 3 4 4 5 6 7 8 7 6 7 6 5 5 4 3 3 3 4 3 3 3 3 3 4 4 4 4 4 4 4 5 5 4 5 5 5 5 6 7 7 8 9 10 8 9 10 11 10 10 8 6 6 7 7 6 7 8 8 7 7 7 8 8 8 10 11 12 11 11 12 13 12 14 13 13 13 12 12 10 9 10 5 8 9
5 3 3 4 6 6 8 8 6 7 7 6 5 4 3 2 2 2 2 2 2 2 2 3 3 3 4 3 4 4 4 5 4 5 6 5 5 6 6 7 6 7 9 10 9 8 9 10 11 10 8 7 8 8 6 5 6 7 7 6 7 6 6 6 7 8 8 5 5 5 4 9 11 13 11 12 13 13 12 11 12 10 9 9 9
7 4 2 3 5 6 7 8 7 7 7 5 3 3 3 2 2 1 1 2 2 2 2 3 3 3 3 3 3 3 3 4 4 5 5 4 5 6 7 6 6 8 10 10 12 10 10 10 11 10 10 8 8 7 5 5 5 5 6 6 5 5 3 4 6 6 6 3 1 3 6 9 8 11 11 12 13 12 12 10 10 8 8 7 4
7 5 4 3 3 2 4 6 7 7 6 4 3 3 2 1 1 1 1 1 1 1 2 3 2 3 3 3 4 3 3 3 4 5 4 4 6 7 6 6 7 9 11 10 10 9 11 10 11 10 8 7 6 6 5 4 4 5 5 4 3 2 2 3 5 5 4 2 7 8 6 7 7 7 11 12 12 11 11 10 8 8 7 5 9
9 5 5 5 4 4 3 6 7 6 5 4 4 3 2 2 1 1 2 2 2 2 2 2 2 2 3 3 3 3 3 3 4 4 4 5 6 7 7 7 7 9 12 11 10 9 10 10 8 8 8 3 5 5 4 5 4 4 3 3 3 2 2 2 4 3 2 5 4 8 8 7 6 6 9 10 9 8 9 8 6 5 2 5 7
6 5 5 5 5 6 5 6 7 6 5 4 3 3 2 2 0 1 1 1 1 2 3 2 2 3 3 4 4 4 4 4 4 4 6 5 6 6 6 5 6 9 11 11 10 10 9 8 8 7 6 6 5 4 4 4 4 3 2 2 2 2 4 7 10 9 7 8 9 10 13 8 7 8 9 9 7 6 5 3 2 1 4 10 10
6 7 6 6 6 7 5 6 6 6 5 4 4 3 2 2 1 1 0 1 2 2 2 3 3 4 4 3 3 3 3 2 3 5 5 5 5 5 6 5 5 7 10 10 8 7 7 6 6 5 6 7 5 6 6 5 3 2 2 2 2 6 11 10 6 4 8 6 5 4 3 5 8 8 8 7 6 3 1 1 0 0 7 9 9
7 6 6 5 6 7 7 6 6 6 5 5 4 4 3 2 1 1 1 0 3 3 3 4 4 3 3 3 4 4 4 4 3 3 5 6 5 5 7 6 3 5 9 10 5 4 5 4 5 7 8 7 6 6 6 5 3 2 2 2 7 9 7 8 7 9 8 6 8 7 8 3 4 7 5 4 6 6 4 5 5 4 6 9 11
8 6 6 7 10 8 8 7 7 6 5 5 5 4 4 3 0 1 2 1 3 5 4 4 4 5 4 5 5 5 5 5 4 4 4 5 6 5 6 5 3 3 6 8 5 4 4 6 5 6 6 4 5 6 7 5 4 4 4 4 6 3 7 6 11 8 8 8 10 8 7 9 9 6 5 4 4 4 4 4 6 7 8 8 9
7 6 6 6 9 7 6 6 6 5 5 6 6 7 5 1 1 2 2 3 4 4 5 6 5 5 5 5 5 4 4 5 5 5 4 5 5 5 4 5 5 4 6 6 6 4 4 5 5 6 6 6 6 6 7 8 7 6 6 5 3 1 5 4 6 10 7 5 8 10 7 7 7 6 3 3 3 3 3 6 6 7 8 8 9
7 6 6 6 6 6 6 6 6 5 6 7 6 6 4 2 1 2 2 4 5 5 5 6 6 6 6 5 5 4 5 5 5 5 5 5 5 5 3 4 5 5 7 9 6 4 3 3 3 3 3 5 5 7 9 9 8 7 8 6 2 1 3 5 6 9 9 8 9 9 8 8 7 5 3 3 2 2 2 5 6 7 7 8 9
8 7 5 5 5 7 6 6 5 5 5 5 6 5 2 1 2 3 4 4 5 5 6 6 5 6 6 6 5 5 5 6 5 5 5 6 8 7 2 4 6 6 6 7 6 4 3 2 2 3 3 4 4 6 8 9 8 8 9 9 6 0 2 3 4 8 8 9 9 8 9 8 7 4 3 3 1 1 4 6 7 7 7 8 9
10 9 7 7 7 6 9 6 5 5 4 5 6 5 2 2 3 4 4 4 4 5 6 5 6 7 7 6 5 5 6 6 5 5 5 5 5 8 9 9 6 7 8 7 8 6 2 2 3 3 3 3 4 5 6 7 8 8 9 10 7 2 5 7 7 7 9 9 7 5 6 7 4 3 2 3 0 3 5 6 7 8 8 9 9
12 11 10 8 9 8 7 8 7 5 5 6 5 5 1 2 3 5 4 4 5 5 5 6 7 7 7 6 5 6 6 4 5 5 5 3 4 8 10 9 10 9 6 4 5 4 3 1 3 4 5 4 5 7 8 6 6 7 8 10 10 3 4 6 6 6 10 9 7 5 5 5 3 1 2 3 2 5 7 8 8 9 10 10 10
11 11 11 11 12 10 8 7 7 7 6 5 4 3 3 3 4 5 5 5 5 5 5 6 8 7 6 5 5 4 4 4 5 4 5 7 8 7 8 12 12 8 7 5 6 5 3 1 2 2 3 3 4 6 7 5 5 5 7 9 12 7 2 3 4 7 7 5 6 6 5 4 3 1 1 3 4 6 8 9 10 11 10 10 10
11 10 10 11 11 11 9 8 7 5 2 3 4 2 1 3 4 5 4 6 5 5 6 7 6 6 5 5 5 4 5 5 4 6 7 7 8 7 8 8 9 11 14 11 5 10 10 8 7 4 1 2 3 2 3 5 5 5 6 7 8 10 2 2 2 5 4 3 3 4 3 1 3 1 3 3 6 8 10 11 11 11 10 9 8
9 10 9 10 10 9 9 7 6 4 3 2 3 2 3 4 5 6 6 6 6 6 6 5 5 5 5 5 5 5 4 4 6 7 7 7 8 9 7 6 7 9 13 15 16 12 11 12 11 7 5 3 3 4 5 5 5 5 5 8 8 10 3 3 4 3 1 2 1 1 1 4 4 6 6 7 8 9 10 11 10 10 9 9 8
7 8 8 7 8 8 6 5 6 6 3 2 2 2 2 4 5 7 7 5 5 5 5 5 5 5 5 5 5 5 6 8 8 5 5 7 6 6 6 6 7 7 8 10 15 19 19 16 9 8 6 5 5 6 5 4 4 4 7 8 13 10 10 5 9 8 3 1 0 0 4 6 5 5 6 7 7 7 8 9 8 8 9 9 10
5 6 5 6 7 7 7 4 6 5 3 3 3 2 2 4 4 6 7 6 5 5 5 6 6 6 6 4 4 6 5 6 6 6 7 5 5 5 5 6 7 7 7 7 7 8 10 11 11 10 9 6 3 2 3 3 5 7 9 12 9 12 3 2 3 2 2 2 1 1 7 5 5 6 6 4 6 4 5 7 8 8 8 8 9
6 4 5 5 6 4 4 3 2 5 3 2 3 3 1 4 4 4 4 4 5 5 6 5 7 5 7 3 8 7 6 7 6 5 6 6 5 5 7 6 7 7 6 7 7 8 9 11 12 13 12 10 11 6 6 6 6 10 10 12 10 4 2 2 3 2 2 2 2 2 3 5 7 7 8 9 7 7 7 7 6 7 8 9 9
6 4 3 6 4 2 2 3 3 3 3 2 3 3 1 3 5 4 1 3 2 4 5 4 6 5 3 2 10 7 6 7 7 5 5 4 5 6 6 6 6 8 8 8 10 9 10 12 14 14 15 14 13 10 10 7 7 10 14 10 6 2 2 2 2 3 3 3 3 5 5 5 5 6 6 7 8 9 9 8 8 8 9 10 10
7 5 5 5 4 1 2 1 2 3 1 2 3 2 2 3 2 2 1 3 1 4 5 3 9 3 6 8 8 4 5 6 4 5 4 7 6 7 8 6 8 9 10 10 10 12 11 12 14 13 13 15 13 13 12 10 11 10 8 11 4 5 3 2 2 2 2 4 4 7 6 6 6 7 7 7 8 9 9 10 11 10 11 11 11
5 5 4 6 4 2 1 1 1 1 1 3 2 2 2 3 2 2 2 3 2 3 5 9 6 7 7 7 3 5 6 5 6 7 7 9 7 8 9 10 11 11 15 10 12 12 14 11 11 13 13 16 15 15 12 14 11 13 9 7 7 5 5 4 3 2 3 3 4 6 6 7 7 7 8 9 10 11 12 14 13 13 13 12 12
5 4 5 6 4 2 2 1 0 1 2 5 5 2 1 3 3 3 4 7 1 1 5 7 3 5 5 3 5 6 6 5 5 6 8 9 7 10 9 10 13 11 15 11 9 15 12 13 15 14 17 14 8 9 7 9 7 6 8 8 7 8 7 6 5 6 4 5 6 7 7 7 9 9 9 10 10 11 12 14 15 15 15 15 15
5 5 5 5 3 3 3 1 1 4 4 3 5 3 3 4 4 5 2 3 3 2 3 3 2 3 4 3 3 4 5 6 7 7 5 7 7 9 9 8 11 12 12 14 10 10 11 13 18 14 11 9 7 9 9 9 8 8 8 8 9 9 9 9 7 6 7 6 8 10 9 10 10 11 11 11 11 11 11 12 13 14 15 15 15
4 6 5 5 2 5 4 2 1 3 8 3 3 3 5 4 7 8 6 5 3 3 3 3 2 4 3 4 5 4 4 2 2 4 7 6 7 11 10 14 6 9 10 11 11 10 12 13 13 11 12 9 12 9 9 10 10 9 9 10 10 10 11 10 10 7 8 8 10 11 11 12 12 12 12 11 11 11 11 11 11 12 13 13 14
5 6 5 5 4 4 5 2 1 2 3 4 4 5 5 6 6 6 7 5 4 3 3 2 2 3 3 6 6 4 4 3 4 5 7 7 9 11 9 10 8 11 10 13 14 8 11 10 13 17 11 12 9 11 10 10 11 11 11 11 11 11 12 11 11 10 9 10 11 11 13 13 13 12 12 12 11 11 10 11 10 11 11 11 12
6 6 6 4 3 6 5 2 1 4 5 5 6 6 6 7 7 7 7 4 5 4 2 2 2 2 3 6 9 7 5 4 5 5 6 8 9 9 10 10 8 8 8 7 14 10 11 12 14 11 10 13 14 9 11 10 12 11 12 11 12 11 12 12 12 12 9 11 10 11 14 13 13 12 12 12 11 11 12 11 12 11 12 11 12
7 6 6 4 2 5 5 3 2 4 5 5 6 7 8 8 8 8 6 6 5 5 3 2 2 2 3 6 7 9 7 6 5 6 5 7 8 10 10 10 8 8 9 15 10 8 11 13 10 11 9 14 11 10 10 11 11 13 11 12 12 12 12 12 12 12 10 10 11 11 13 14 12 12 12 12 12 12 12 12 12 13 13 13 14
7 5 4 4 4 6 5 5 2 4 5 6 7 8 9 9 9 8 5 6 5 4 3 2 3 5 4 4 5 7 8 7 8 7 6 9 10 11 13 8 12 3 7 10 11 9 12 11 11 11 10 13 11 10 10 10 11 11 12 10 11 12 12 13 13 11 10 9 10 10 11 12 13 12 13 13 13 14 13 13 12 13 14 15 16
6 5 5 3 6 5 3 4 3 4 5 6 8 10 11 10 9 7 6 6 4 4 4 4 6 5 5 3 4 4 5 5 7 6 6 7 8 9 12 10 16 7 10 8 10 13 17 12 14 9 13 9 11 9 10 8 10 11 13 9 10 11 11 12 11 12 10 10 10 9 10 11 11 13 14 14 15 15 15 14 14 15 14 15 16
6 4 5 3 4 1 2 3 4 4 6 8 10 11 11 10 9 7 6 4 4 3 3 4 5 4 3 3 2 2 4 5 5 8 10 6 6 7 8 10 10 10 7 9 11 9 11 13 12 11 8 15 7 5 11 9 8 10 10 8 10 10 11 10 11 9 11 10 8 7 11 11 11 12 12 14 15 15 15 15 15 15 15 16 16
7 5 5 3 4 2 3 4 4 4 8 8 10 11 11 9 8 7 6 5 4 4 3 4 4 3 2 2 1 2 4 5 7 9 9 12 10 10 8 11 10 11 9 4 7 9 9 8 11 9 7 9 7 6 6 7 7 nan 11 9 8 9 9 9 9 8 8 7 9 8 9 9 10 10 10 12 15 17 16 15 15 15 15 15 17
7 7 6 2 4 3 2 4 3 4 8 10 10 11 10 9 7 7 5 4 4 3 4 4 4 3 2 2 1 2 3 4 6 9 10 8 10 10 7 11 8 8 13 6 5 7 7 7 5 13 7 5 6 6 4 5 5 6 7 7 7 8 7 8 7 7 5 7 7 7 9 8 9 10 8 11 11 13 16 15 15 15 15 16 16
8 8 7 3 4 4 1 4 3 5 6 9 10 10 10 9 7 6 4 3 3 3 4 4 4 3 3 2 1 2 3 5 7 8 10 8 9 9 12 10 7 6 9 8 8 8 9 6 9 10 6 7 6 4 5 5 5 5 5 4 6 7 6 6 6 4 3 5 5 6 7 7 7 5 10 9 10 11 14 16 16 16 17 17 16
9 8 8 4 5 5 1 4 5 5 8 10 9 9 9 9 8 6 6 4 1 3 5 5 4 3 4 5 1 2 5 5 7 9 13 11 12 8 13 11 8 5 10 6 10 10 8 8 8 10 8 8 5 5 4 5 5 4 4 4 6 5 5 5 5 5 2 4 6 5 6 6 7 7 9 8 7 11 11 15 17 17 17 16 16
8 8 8 4 3 5 2 6 5 5 7 8 8 8 7 8 8 6 6 4 6 5 6 6 5 3 2 2 1 4 5 7 7 10 8 13 11 5 11 14 9 8 9 4 8 12 10 10 9 8 10 8 6 7 6 4 4 4 3 2 4 7 6 5 5 4 4 4 3 5 4 6 6 6 7 7 7 8 10 10 11 11 13 17 16
10 7 7 5 3 6 2 6 6 5 7 7 8 7 8 7 7 7 7 6 6 8 7 6 6 6 3 2 2 6 6 8 8 8 9 12 13 11 11 12 13 11 9 6 10 8 10 10 14 10 8 9 7 6 4 5 6 7 7 5 5 4 6 6 5 4 4 4 4 6 6 2 6 6 5 8 7 7 7 9 10 10 9 14 17
11 8 7 5 3 5 3 5 6 6 7 7 7 7 7 7 7 6 6 6 7 7 8 6 5 5 4 2 3 7 6 9 9 9 9 10 12 11 9 13 13 11 11 7 7 9 8 8 12 10 9 9 8 8 7 8 6 5 6 7 5 7 4 6 6 5 5 5 3 6 5 4 2 4 5 4 4 7 6 8 8 7 7 9 14
11 9 7 5 4 5 3 6 7 7 6 7 8 7 8 8 8 7 7 7 7 7 7 7 6 4 4 4 6 7 7 9 10 10 10 10 11 11 11 12 15 12 11 10 10 6 6 8 12 7 11 10 8 11 6 6 8 8 7 7 7 6 7 8 7 6 7 6 5 4 4 6 4 4 4 3 5 5 9 9 9 8 6 9 11
11 11 8 6 5 5 5 6 8 8 7 7 8 9 9 8 7 7 nan nan nan 7 nan nan 7 5 3 6 7 8 8 10 11 12 11 11 11 12 11 11 13 10 13 12 9 10 10 10 10 12 9 9 11 9 9 12 9 7 8 9 8 7 8 8 8 8 8 6 8 6 5 5 4 3 4 5 5 7 6 6 4 5 6 7 8
12 11 10 7 7 7 6 7 9 9 9 9 10 9 8 7 6 7 nan nan nan nan nan 5 nan 7 4 5 8 8 9 10 11 11 11 10 10 11 12 9 11 8 12 11 12 10 11 11 12 10 8 13 14 8 9 9 12 8 10 9 10 9 9 8 8 9 9 8 8 8 5 7 6 5 6 7 6 6 6 7 7 7 7 8 7
10 11 10 8 9 8 8 8 10 10 11 11 10 10 9 7 6 6 nan 10 nan nan nan 6 6 8 7 5 7 8 9 11 10 11 12 9 9 10 10 10 9 10 11 10 10 12 10 10 11 6 11 6 17 6 10 8 8 10 9 11 9 8 7 6 6 nan 8 9 8 9 5 9 8 6 8 8 6 9 11 9 9 9 8 8 9
9 11 10 9 9 10 11 10 12 12 12 11 9 9 8 7 6 6 5 7 9 8 7 6 6 5 8 6 6 8 9 10 10 10 10 8 8 9 9 10 9 10 11 12 11 11 9 13 7 10 9 11 10 10 5 9 5 5 7 8 8 8 8 9 10 6 9 9 10 10 9 12 9 9 9 11 11 12 11 10 10 10 10 11 11
11 12 10 10 9 12 12 11 12 13 13 12 8 9 8 6 4 5 6 7 9 9 9 9 8 6 nan 6 7 8 9 9 9 9 9 8 7 8 8 10 10 9 10 12 11 11 8 9 8 8 9 7 7 8 6 6 4 7 8 10 6 11 9 11 9 9 7 7 10 11 9 11 12 11 13 13 12 12 11 10 10 12 12 12 12
14 14 11 10 11 12 13 13 14 14 14 13 9 9 7 6 5 6 8 8 7 8 7 10 nan nan nan nan 6 7 8 10 10 9 9 9 8 8 8 10 11 11 10 12 13 12 9 7 8 7 6 6 6 7 7 5 5 8 9 9 9 8 9 nan 11 9 8 7 6 11 10 10 11 12 11 12 11 13 8 9 12 11 12 13 13
14 14 14 12 13 13 14 15 14 14 13 11 10 8 8 7 7 7 8 10 9 nan 9 nan nan nan nan nan 8 7 7 8 11 9 9 10 8 8 8 10 10 11 11 11 12 11 10 8 7 7 7 7 7 7 8 8 9 6 6 9 9 8 9 9 7 8 7 6 7 8 9 8 11 9 8 9 10 9 11 14 12 11 10 11 13
14 15 16 15 14 14 14 14 14 15 14 12 11 9 7 8 8 7 6 9 nan nan nan nan nan nan nan 8 9 8 9 8 9 11 8 10 9 8 8 9 9 10 10 11 10 10 9 9 8 8 8 8 8 8 8 7 7 7 5 6 6 7 7 7 8 7 5 5 9 8 8 10 9 7 9 12 8 9 10 9 13 15 15 14 15
17 16 16 16 16 14 15 14 15 16 14 12 12 10 8 8 8 7 6 7 7 nan nan 11 10 10 10 9 9 9 10 10 9 9 10 9 9 8 8 7 8 7 8 10 9 9 8 8 8 8 8 8 7 8 8 7 6 5 6 4 6 6 5 6 6 7 8 7 8 9 10 9 10 10 9 7 8 11 9 10 11 13 12 13 14
Wind_Direction
43 8 22 356 33 45 34 24 14 344 341 334 324 318 318 302 307 319 323 327 328 324 319 310 286 262 252 244 240 231 225 221 220 213 206 203 196 197 199 200 202 198 196 197 198 193 193 195 201 213 227 218 221 221 229 223 232 237 246 256 253 254 253 258 262 263 258 249 247 251 263 256 243 238 245 245 240 235 244 257 270 264 262 239 240
20 28 19 15 45 26 12 14 357 351 349 332 324 315 299 304 313 319 319 327 331 320 311 287 259 238 231 230 230 232 225 230 221 219 216 211 210 211 214 215 208 203 205 216 213 208 203 205 209 226 243 249 237 247 246 247 254 247 238 238 246 241 261 273 270 276 271 255 244 247 251 249 245 236 231 237 229 225 237 243 235 234 229 255 265
10 9 9 7 30 16 5 358 354 345 332 327 326 313 303 310 312 312 318 322 320 302 284 258 241 234 222 229 230 233 235 230 230 230 236 226 212 215 224 223 216 211 219 226 228 225 218 208 215 221 238 255 261 247 249 253 255 258 257 259 265 275 270 278 280 271 265 255 253 259 258 253 244 234 235 234 229 231 237 239 243 240 239 256 259
349 349 350 2 19 28 10 1 351 340 324 318 310 291 284 284 295 298 307 300 288 275 261 250 246 240 236 231 237 235 236 239 233 235 237 234 223 224 230 231 228 226 232 246 238 239 240 229 225 219 224 239 258 257 260 246 233 234 243 249 259 263 268 278 282 275 271 259 241 289 253 251 239 232 239 238 235 234 240 245 249 260 270 268 273
330 325 334 20 18 22 358 352 349 332 312 302 292 276 259 259 262 282 271 265 263 261 259 260 266 251 252 251 246 251 244 242 242 244 250 261 250 235 230 237 240 245 250 241 236 221 234 238 244 237 218 221 235 246 234 230 230 240 238 247 251 251 265 268 270 270 268 291 68 146 218 246 233 230 235 233 224 232 247 259 262 266 272 285 287
317 328 357 1 3 351 4 340 337 323 308 293 273 263 253 247 252 252 271 303 310 303 288 288 280 275 278 277 275 272 270 264 258 258 264 269 264 254 239 241 246 252 257 249 251 236 241 233 241 248 235 221 232 243 238 219 223 243 246 252 249 244 235 247 259 262 241 189 140 168 217 219 224 214 228 217 218 228 248 253 258 265 279 282 271
323 344 345 344 3 2 34 331 324 318 306 286 268 254 245 245 244 347 12 9 4 343 320 303 292 297 298 289 290 301 303 304 294 292 277 269 269 261 248 239 243 252 255 252 245 241 240 250 246 245 258 233 227 229 219 230 232 236 265 283 270 239 190 191 219 220 193 119 183 168 189 183 203 200 227 212 219 238 242 240 245 258 258 288 276
332 334 330 326 332 348 0 335 320 313 301 280 255 246 225 228 60 49 37 18 356 340 317 308 313 308 326 328 326 316 328 340 331 310 306 293 281 278 268 249 244 257 262 261 246 237 238 232 231 243 251 250 212 211 214 221 233 238 241 245 263 200 170 192 225 206 162 153 198 179 152 180 181 180 202 210 209 214 224 221 213 235 290 282 289
330 320 309 298 311 328 350 323 318 313 295 268 248 227 215 185 128 95 344 356 352 330 323 326 339 345 351 333 313 314 303 309 338 326 309 300 286 293 283 257 239 265 279 266 260 254 246 247 243 240 237 235 223 201 191 198 222 227 211 209 185 204 192 179 222 127 110 176 175 154 163 128 159 164 183 205 216 216 287 339 6 74 273 275 275
318 299 296 298 312 314 320 323 316 308 289 255 241 221 204 167 147 258 240 329 338 325 334 343 345 329 338 334 336 337 346 351 343 329 324 315 307 302 294 283 262 269 285 289 287 256 257 257 248 232 225 214 210 196 178 183 188 177 156 183 218 195 132 138 164 144 136 164 168 153 147 169 126 151 181 178 177 182 175 191 210 257 267 272 272
303 303 302 305 305 317 318 319 313 304 278 257 241 227 216 196 253 311 318 286 322 328 338 340 351 346 349 358 359 6 359 3 8 1 339 323 318 310 304 315 309 308 295 301 306 289 243 228 217 227 230 211 203 186 170 175 174 160 152 168 246 119 122 133 117 108 132 159 145 126 148 153 138 136 126 162 152 157 196 246 274 271 277 278 275
294 288 292 282 301 310 311 304 299 283 258 239 233 228 212 215 316 309 319 327 315 326 340 356 1 0 12 14 11 16 22 20 21 15 353 335 319 317 320 330 338 335 310 311 312 290 246 221 207 207 206 192 184 177 169 166 174 156 147 158 217 138 141 140 120 107 126 138 114 114 111 118 118 116 122 122 141 161 224 263 273 279 280 283 285
296 288 283 299 293 292 290 284 278 266 244 236 233 230 211 213 299 311 321 321 323 343 10 360 8 14 30 25 19 25 38 40 30 19 8 341 330 330 340 355 2 360 345 337 323 295 271 234 198 186 200 191 172 161 153 159 177 160 150 148 187 263 136 125 82 115 107 106 102 111 117 108 112 127 137 139 154 190 248 279 282 286 288 291 291
295 289 295 288 276 297 285 289 286 273 252 240 243 239 245 294 316 312 335 338 342 352 14 358 18 33 42 37 31 37 43 41 31 28 12 2 349 334 345 24 23 17 5 343 323 301 259 208 182 174 176 173 161 155 159 163 163 162 150 139 140 97 48 73 84 88 106 106 115 115 114 114 116 125 167 154 134 335 301 296 297 298 304 300 295
301 311 308 295 312 319 311 306 304 290 259 237 249 241 239 319 313 314 319 335 351 6 26 9 23 35 43 42 38 42 42 35 30 33 20 10 356 332 348 33 23 28 13 356 341 335 299 171 159 164 183 176 160 159 162 164 162 168 153 137 140 213 101 90 75 77 84 87 91 97 106 108 104 120 149 142 75 298 290 295 305 308 309 303 300
317 316 308 320 327 329 334 323 316 305 265 237 229 268 329 299 310 310 320 349 353 21 11 16 29 37 40 44 39 39 42 36 32 29 30 358 13 1 1 5 6 23 11 24 23 353 328 156 153 163 178 178 147 151 162 163 171 173 158 143 136 180 31 90 88 83 84 88 89 80 80 94 106 117 165 117 304 293 295 302 308 308 309 306 302
314 313 323 327 333 342 335 340 321 311 289 271 235 235 284 315 315 313 333 344 5 13 10 34 32 31 34 40 44 49 50 48 40 37 45 24 23 16 9 359 354 343 332 54 78 77 53 72 98 134 190 169 147 149 126 131 193 175 163 150 141 141 238 78 89 83 67 78 98 96 84 68 68 100 125 279 297 297 298 303 309 311 311 309 307
310 324 325 333 344 342 338 330 332 337 295 286 288 276 287 305 316 323 344 352 2 28 23 19 29 24 20 30 40 43 48 48 41 47 41 35 32 31 24 6 1 346 334 7 52 111 116 123 139 132 178 69 70 85 134 181 194 184 152 145 129 132 212 80 70 75 76 39 70 84 103 72 39 340 284 309 300 301 304 309 311 315 315 315 318
321 321 329 342 342 343 327 332 344 329 324 192 192 269 317 322 326 340 359 351 8 17 14 28 25 24 15 22 25 33 37 49 58 35 40 40 35 34 32 23 10 4 352 345 358 26 60 82 93 128 141 148 175 172 170 178 172 160 131 103 118 111 130 69 68 76 86 133 135 315 38 340 347 330 336 322 312 306 307 313 320 325 325 322 323
302 320 334 341 345 331 329 341 345 343 9 238 218 232 292 315 332 345 346 352 5 16 20 27 27 15 10 8 25 27 30 32 28 43 40 42 47 54 40 33 25 19 16 3 358 10 19 37 59 90 114 145 167 172 174 154 124 97 91 91 87 98 82 26 32 40 45 68 78 236 346 354 349 346 331 322 323 312 315 322 333 336 335 335 331
298 323 337 338 331 333 338 345 348 344 313 251 220 215 275 323 349 353 349 352 8 31 29 22 22 16 17 11 48 58 46 51 58 51 42 57 43 48 51 39 40 32 26 23 24 26 32 32 39 49 56 55 92 121 136 127 83 75 67 76 81 82 86 79 43 12 18 25 358 21 4 9 15 1 344 348 345 331 337 342 343 338 339 343 343
308 316 323 335 323 339 344 325 355 332 297 205 197 179 221 9 6 14 21 14 19 43 44 45 36 28 4 357 93 92 72 71 52 45 58 49 56 38 35 41 44 47 37 34 34 37 41 41 41 46 47 48 35 67 76 71 73 69 67 72 78 76 62 357 342 328 334 343 331 355 346 353 9 12 6 8 1 357 17 351 342 348 2 4 6
314 315 321 324 319 344 336 334 346 310 304 244 191 193 18 48 15 24 54 25 41 79 89 63 71 38 32 127 82 68 58 74 77 88 75 56 47 47 40 35 45 52 46 45 42 40 42 51 47 48 50 50 74 87 80 72 85 86 81 90 91 113 39 8 337 339 330 325 335 333 339 348 6 15 14 7 7 10 14 10 12 12 20 19 24
314 323 324 309 314 346 337 322 325 304 261 179 185 168 108 134 111 97 92 113 59 93 91 74 77 56 74 48 65 47 54 77 67 10 44 72 61 51 43 34 51 57 56 61 68 54 52 60 59 55 67 71 71 82 77 68 71 78 95 86 101 76 66 63 26 337 342 324 335 332 347 2 8 16 19 23 25 28 28 32 33 26 28 33 36
318 312 316 308 304 331 309 303 340 277 156 178 159 146 148 117 110 83 155 136 187 133 111 92 67 57 39 57 343 50 46 59 65 76 88 85 86 95 79 74 82 81 102 77 83 80 69 82 80 86 73 73 61 51 52 67 70 68 70 94 85 89 75 75 61 30 8 3 357 349 1 20 29 30 31 33 36 38 39 40 41 36 38 41 40
311 312 319 306 321 337 327 348 327 136 158 194 144 184 172 151 142 166 194 125 150 359 52 78 84 84 93 67 15 13 35 43 67 83 83 81 79 66 80 77 71 78 70 80 74 81 80 80 78 78 75 68 95 96 93 100 90 87 85 82 88 87 89 79 67 51 36 36 30 11 22 34 43 45 45 45 46 47 47 47 45 43 44 42 43
312 304 315 303 314 338 305 2 92 183 145 230 117 203 166 182 164 155 178 119 168 146 125 120 98 89 88 75 69 53 12 28 40 45 46 72 106 100 91 101 77 84 91 82 71 74 87 89 90 72 89 82 88 93 94 88 100 95 93 94 90 89 92 88 81 73 65 51 41 27 33 44 50 51 53 53 53 55 54 51 50 48 48 47 47
303 305 316 308 322 342 318 10 195 193 137 149 183 196 196 182 200 163 152 187 165 144 136 124 146 120 102 81 84 105 117 88 90 85 100 96 45 70 54 70 70 78 60 80 87 99 80 99 95 91 85 101 94 93 88 83 92 96 96 95 97 95 89 92 87 74 70 60 57 47 45 47 54 60 58 59 62 62 63 61 57 56 54 54 53
314 314 309 317 341 323 331 350 164 163 173 174 190 191 200 177 201 154 176 175 142 157 168 168 124 120 122 116 109 117 115 112 94 104 117 124 119 116 126 111 145 124 149 129 121 83 96 81 91 94 95 98 84 84 98 98 95 96 99 92 85 89 92 87 85 75 63 69 69 59 51 53 57 61 66 67 66 66 67 65 61 60 57 53 52
305 324 315 306 354 318 345 317 157 159 180 187 192 189 198 186 180 175 192 141 154 182 189 119 160 132 135 125 145 137 133 137 149 142 124 120 115 114 112 131 128 132 121 97 87 131 109 85 87 108 114 110 108 100 88 93 96 103 103 102 98 91 85 86 86 84 70 73 74 66 52 56 57 58 64 69 71 68 64 60 60 56 55 53 52
304 333 314 301 339 324 344 292 168 172 180 186 189 197 185 185 178 181 182 154 176 183 126 155 165 117 170 158 154 153 149 162 154 135 137 116 120 119 130 132 138 132 137 106 115 91 86 99 111 97 109 90 86 87 97 97 105 100 105 100 100 93 92 88 83 81 68 71 74 70 64 54 55 58 61 65 65 68 67 68 55 55 53 51 49
300 326 302 291 330 337 340 298 228 170 177 189 189 188 178 181 177 177 181 174 175 148 149 183 143 191 190 152 155 160 162 174 154 142 140 144 141 146 145 128 107 90 73 124 134 130 117 120 116 116 95 94 96 94 99 104 110 114 100 105 98 99 95 89 86 94 97 74 74 73 71 66 54 53 54 56 57 56 58 58 63 62 55 52 51
276 320 302 318 326 342 317 295 242 181 156 189 178 180 177 177 173 175 180 181 156 161 166 175 195 187 175 154 168 172 164 156 147 147 145 146 135 144 115 139 119 148 149 147 166 160 137 130 117 122 104 96 89 93 98 103 106 114 113 115 116 105 101 96 92 82 82 80 71 76 73 68 62 53 52 53 52 52 54 51 56 58 58 60 58
274 276 302 341 299 315 260 239 234 179 149 179 171 176 172 177 170 171 185 173 164 164 191 187 184 167 161 164 155 168 171 163 146 140 128 117 113 108 122 125 124 146 160 171 146 141 129 130 147 136 123 102 124 110 99 100 103 111 121 124 112 113 101 98 97 94 88 85 89 66 65 66 64 65 61 51 53 55 50 52 51 52 54 57 59
277 286 300 336 310 306 247 205 216 175 148 181 164 175 167 177 170 168 186 153 193 167 193 196 165 160 161 163 157 173 178 164 152 139 142 145 144 128 140 115 143 163 148 151 136 128 128 141 124 107 156 144 112 133 101 107 120 nan 128 127 119 104 109 105 97 92 94 103 89 83 77 76 74 61 57 56 53 49 49 51 50 49 51 55 59
301 290 289 317 315 294 260 230 206 176 154 178 169 176 163 176 168 171 191 156 195 197 193 170 162 155 146 225 205 182 165 144 148 137 144 133 116 120 121 125 158 162 133 139 123 122 128 126 169 123 150 156 161 133 124 119 122 114 118 118 107 109 108 105 89 84 81 76 83 88 87 85 77 77 54 63 60 51 45 46 49 50 48 51 54
303 293 294 309 312 286 262 240 205 175 164 181 173 179 162 173 170 168 200 181 203 197 195 163 163 159 149 235 220 152 126 144 144 135 116 115 115 119 123 130 137 118 99 140 141 120 117 147 131 130 162 140 166 163 158 140 139 120 116 127 131 122 118 111 106 97 110 115 94 71 86 85 96 87 79 54 47 55 37 38 42 44 46 47 46
293 297 297 304 323 280 258 215 197 181 173 185 176 182 172 175 175 164 204 166 213 203 193 169 160 173 201 198 206 114 116 133 137 136 142 131 127 129 124 112 115 122 121 146 124 106 115 131 127 127 147 148 165 169 155 153 145 138 141 178 132 130 129 117 130 116 104 96 101 127 106 95 79 75 80 78 61 39 42 37 38 39 42 42 43
284 303 295 290 305 271 223 214 197 184 185 192 186 191 193 180 176 184 199 177 170 178 201 172 155 166 234 265 118 105 118 126 132 129 142 118 105 110 96 112 113 105 97 137 93 117 128 121 126 127 125 140 155 152 173 165 137 135 145 162 154 136 138 136 104 119 109 106 115 89 72 100 103 92 96 82 70 50 38 36 40 44 42 39 40
284 281 291 288 299 277 250 215 195 188 195 195 194 198 202 188 190 194 200 181 181 177 187 172 157 152 201 239 113 110 120 121 123 126 125 120 128 130 135 117 130 115 113 124 134 103 103 136 117 120 125 112 126 114 114 123 164 167 169 143 129 135 131 130 113 105 102 84 80 102 94 74 94 96 73 83 83 69 49 35 37 44 37 25 36
287 286 286 287 286 270 250 235 207 206 199 193 195 205 209 203 198 194 203 192 184 190 172 170 159 142 188 162 108 107 120 117 121 120 119 123 122 120 124 116 106 117 120 130 70 103 117 127 106 117 119 122 108 104 127 134 139 125 114 121 121 106 94 107 108 94 91 99 93 89 120 97 79 83 87 88 73 64 39 38 44 48 40 12 33
285 290 284 271 262 271 256 231 215 208 210 202 202 202 207 203 202 190 195 194 188 187 173 157 146 168 183 141 106 107 113 116 117 116 116 117 115 119 115 112 113 125 125 93 105 87 84 72 95 126 113 117 117 112 122 108 103 107 108 102 104 99 112 94 80 85 84 82 75 80 101 115 92 64 49 27 44 51 43 26 37 32 39 36 31
288 291 278 263 250 239 229 226 212 208 212 211 211 203 208 209 198 192 nan nan nan 183 nan nan 144 161 146 123 113 116 114 116 116 114 115 114 115 116 114 112 111 129 109 114 115 113 113 119 121 115 129 119 113 120 112 109 115 112 123 112 99 95 93 101 97 87 82 86 92 80 79 73 83 69 83 66 37 41 33 30 38 59 50 53 45
283 283 280 272 233 222 227 226 214 207 210 214 215 216 211 213 195 188 nan nan nan nan nan 158 nan 139 133 110 117 118 118 118 115 113 117 118 116 117 116 121 108 104 110 122 131 111 112 116 111 122 124 121 121 97 97 107 113 117 95 100 89 96 94 86 82 80 77 80 93 95 60 72 46 66 57 69 57 40 30 39 42 51 55 54 52
285 277 276 262 225 242 233 230 217 207 210 220 222 220 215 208 196 184 nan 167 nan nan nan 160 150 138 130 118 110 116 120 122 121 116 119 120 119 120 122 120 116 113 112 112 102 104 103 102 109 106 93 114 95 116 111 96 100 116 109 95 94 86 109 100 70 nan 85 80 68 68 53 83 70 45 71 74 75 51 51 37 45 44 43 46 44
275 271 269 266 245 237 237 231 217 211 214 229 228 222 217 209 204 197 189 179 192 193 172 155 141 126 114 122 113 110 117 121 126 120 116 124 118 113 118 116 111 115 114 110 112 118 112 107 96 105 104 103 128 128 119 113 107 97 107 105 109 106 104 105 102 91 101 94 70 65 55 61 61 41 60 59 47 64 54 56 34 40 39 42 46
277 262 262 265 257 247 243 238 222 215 217 228 236 220 224 204 210 208 197 192 193 183 171 145 134 129 nan 113 118 116 118 120 123 120 118 116 114 108 107 108 109 108 106 110 111 106 105 103 120 114 119 115 121 124 121 106 123 95 75 87 78 98 103 94 97 91 92 95 110 92 55 67 63 48 46 56 53 59 57 60 46 49 27 39 42
285 266 256 254 262 254 252 246 226 222 220 225 233 225 220 211 210 199 197 194 187 179 158 141 nan nan nan nan 118 120 118 122 124 121 116 112 109 106 102 103 107 103 100 100 103 104 120 124 117 131 124 126 117 111 115 112 87 102 91 89 87 90 113 nan 101 105 95 101 85 88 78 39 61 60 56 57 58 57 46 35 60 53 50 30 32
297 279 262 249 249 251 252 247 236 230 228 236 232 229 216 212 212 203 195 193 184 nan 156 nan nan nan nan nan 125 125 126 121 121 119 112 110 108 107 100 101 101 102 101 99 97 99 105 112 114 114 113 120 114 112 116 120 117 104 101 101 110 95 80 82 73 77 93 102 92 81 69 57 77 57 72 90 78 64 42 41 42 62 56 39 30
304 284 266 253 247 245 253 255 247 235 233 242 238 236 228 216 215 209 204 199 nan nan nan nan nan nan nan 133 132 140 134 125 117 116 118 111 110 108 104 97 99 101 104 103 102 103 101 106 106 107 115 118 122 116 108 111 107 118 101 88 89 100 102 91 95 78 84 88 89 92 100 93 54 43 62 55 48 66 65 53 18 36 38 41 43
307 298 277 262 254 248 253 257 251 238 239 243 247 245 232 221 214 219 216 205 192 nan nan 164 158 149 142 136 133 133 131 127 126 122 117 113 112 111 108 100 102 107 110 113 111 105 96 96 100 105 113 116 127 123 121 119 111 107 98 79 73 65 62 97 105 129 106 80 83 88 76 80 100 92 69 82 74 69 61 56 65 61 58 54 48